SCP
-0 -0 -0 -0 -0 -0 -0 -0 -0 -0 -0 -0 -0 -0 -0 -0 -0 -0 -0 -0 -0 -0 -0 -0 0 0 0 0 0 0 0 0 0 0 0 -0 -0 -0 -0 -0 -0 0 0
-0 -0 -0 -0 -0 -0 -0 -0 -0 -0 -0 -0 -0 0 0 -0 -0 -0 -0 -0 -0 0 0 0 -0 0 0 0 0 0 0 0 0 0 0 -0 -0 0 0 -0 0 0 -0
-0 -0 -0 -0 -0 -0 -0 -0 -0 -0 -0 -0 0 0 0 0 0 -0 -0 -0 -0 -0 -0 -0 -0 0 0 0 0 0 0 0 0 -0 0 0 0 0 0 0 0 0 -0
-0 -0 -0 -0 -0 -0 -0 -0 -0 -0 -0 -0 -0 -0 0 -0 -0 -0 0 0 0 -0 -0 -0 -0 -0 0 0 0 0 0 0 -0 -0 0 0 0 0 0 0 0 0 0
-0 -0 -0 -0 -0 -0 -0 -0 -0 -0 -0 -0 -0 -0 -0 -0 -0 -0 0 0 0 0 0 0 -0 -0 0 0 0 0 0 0 -0 -0 0 0 0 0 0 0 0 0 0
-0 -0 -0 -0 -0 -0 -0 -0 -0 -0 -0 0 -0 -0 -0 -0 -0 -0 -0 -0 -0 0 0 0 -0 -0 0 0 0 0 0 0 -0 0 0 0 0 0 0 0 0 0 0
-0 -0 -0 -0 -0 -0 -0 -0 -0 -0 -0 -0 -0 -0 -0 -0 -0 -0 0 0 -0 -0 -0 -0 -0 -0 0 0 0 0 0 0 0 0 0 0 0 0 0 0 0 0 0
-0 -0 -0 -0 -0 -0 -0 -0 -0 -0 -0 -0 -0 -0 -0 0 -0 0 0 0 0 0 0 0 -0 0 0 0 0 0 0 0 0 0 0 0 0 0 0 0 0 0 0
0 0 0 -0 -0 -0 -0 0 -0 -0 0 0 0 0 0 0 -0 0 0 0 0 0 0 0 0 0 0 0 0 0 0 0 0 0 0 0 0 0 0 0 0 0 0
0 0 0 0 0 -0 0 0 0 0 0 0 0 0 0 0 0 0 0 0 0 0 0 0 0 0 0 0 0 0 0 0 0 0 0 0 0 0 0 0 0 0 0
0 0 0 0 0 0 0 0 0 0 0 0 0 0 0 0 0 0 0 0 0 0 0 0 0 0 0 0 0 0 0 0 0 0 0 0 0 0 0 0 0 0 0
0 0 0 0 0 0 0 0 0 0 0 0 0 0 0 0 0 0 0 0 0 0 0 0 0 0 0 0 0 0 0 0 0 0 0 0 0 0 0 0 0 0 0
0 0 0 0 0 0 0 0 0 0 0 0 0 0 0 0 0 0 0 0 0 0 0 0 0 0 0 0 0 0 0 0 0 0 0 0 0 0 0 0 0 0 0
0 0 0 0 0 0 0 0 0 0 0 0 0 0 0 0 0 0 0 0 0 0 0 0 0 0 0 0 0 0 0 0 0 0 0 0 0 0 0 0 0 0 0
0 0 0 0 0 0 0 0 0 0 0 0 0 0 0 0 0 0 0 0 0 0 0 0 0 0 0 0 0 0 0 0 0 0 0 0 0 0 0 0 0 0 0
0 0 0 0 0 0 0 0 0 0 0 0 0 0 0 0 0 0 0 0 0 0 0 0 0 0 0 0 0 0 0 0 0 0 0 0 0 0 0 0 0 0 0
0 0 0 0 0 0 0 0 0 0 0 0 0 0 0 0 0 0 0 0 0 0 0 0 0 0 0 0 0 -0 -0 -0 0 0 0 0 0 0 0 0 0 0 0
0 0 0 0 0 0 0 0 0 0 0 0 0 0 0 0 0 0 0 0 0 0 0 0 0 0 0 0 0 0 0 0 -0 0 0 0 0 0 0 0 0 0 0
0 0 0 0 0 0 0 0 0 0 0 0 0 0 0 0 0 0 0 0 0 0 0 0 0 0 0 0 0 0 0 0 0 0 0 0 0 0 0 0 0 0 0
0 0 0 0 0 0 0 0 0 0 0 0 0 0 0 0 0 0 0 0 0 0 0 0 0 0 0 0 0 0 0 0 0 0 0 0 0 0 0 0 0 0 0
0 0 0 0 0 0 0 0 0 0 0 0 0 0 0 0 0 0 0 0 0 0 0 0 0 0 0 0 0 0 0 0 0 0 0 0 0 0 0 0 0 0 0
0 0 0 0 0 0 0 0 0 0 0 0 0 0 0 0 0 0 0 0 0 0 0 0 0 0 0 0 0 0 0 0 0 0 0 0 0 0 0 0 0 0 0
0 0 0 0 0 0 0 0 0 0 0 0 0 0 0 0 0 0 0 0 0 0 0 0 0 0 0 0 0 0 0 0 0 0 0 0 0 0 0 0 0 0 0
0 0 0 0 0 0 0 0 0 0 0 0 0 0 0 0 0 0 0 0 0 0 0 0 0 0 0 0 0 0 0 0 0 0 0 0 0 0 0 0 0 0 0
0 0 0 0 0 0 0 0 0 0 0 0 0 0 0 0 0 0 0 0 0 0 0 0 0 0 0 0 0 0 0 0 0 0 0 0 0 0 -0 0 0 0 0
0 0 0 0 0 0 0 0 0 0 0 0 0 0 0 0 0 0 0 0 0 0 0 0 0 0 0 0 0 0 0 0 0 0 0 0 0 0 0 -0 -0 -0 0
Wind_Speed_500mb
13 25 27 24 22 21 20 19 18 16 16 16 14 12 15 13 13 13 16 20 22 22 21 21 19 18 18 16 14 15 15 14 14 15 15 13 17 19 19 19 19 15 15
17 25 28 24 21 20 18 19 19 17 16 13 10 11 12 10 8 11 14 18 21 20 19 19 18 17 16 15 14 14 14 14 17 18 18 23 7 10 14 17 21 25 14
20 27 30 22 19 21 20 19 17 14 11 8 7 7 9 6 6 10 14 16 18 18 16 16 16 15 14 13 10 10 11 12 14 20 29 10 10 4 5 5 7 11 17
19 27 28 27 23 22 19 17 17 15 10 4 4 5 4 2 4 10 12 13 16 16 15 12 12 11 11 10 8 7 7 9 11 20 16 14 14 9 6 5 3 2 4
17 24 25 29 26 23 22 18 16 13 8 6 6 4 2 3 8 8 8 12 16 17 14 10 10 10 10 8 6 5 5 6 11 21 8 10 15 16 12 9 6 5 4
14 25 28 26 25 23 21 19 17 14 11 9 7 3 1 4 5 6 9 14 19 21 13 6 6 8 8 6 4 4 3 7 20 7 15 11 2 11 10 10 9 5 4
12 19 23 26 21 22 20 19 18 18 15 12 9 4 2 4 9 4 11 17 20 20 12 7 8 10 9 7 3 2 5 7 15 5 10 4 5 9 11 11 10 7 3
12 18 16 29 28 24 20 18 16 15 15 14 11 7 7 4 10 12 13 17 19 19 12 9 10 11 9 7 5 3 5 8 9 2 2 5 2 9 13 14 13 11 8
11 14 13 16 28 29 26 21 18 18 16 13 12 11 12 8 8 13 17 20 20 16 12 11 12 12 9 6 4 3 3 5 8 1 7 11 7 8 10 11 11 10 9
14 18 23 26 29 31 22 26 24 22 19 16 15 16 18 18 14 13 18 19 23 18 15 14 14 13 11 7 5 4 2 3 4 4 8 10 12 13 11 11 11 10 10
15 18 19 21 25 33 33 26 29 29 25 21 22 20 17 19 15 12 15 24 24 20 18 15 15 16 14 11 9 8 7 6 7 7 12 11 12 13 15 14 12 12 12
18 21 23 24 25 27 32 34 21 23 27 23 21 18 17 17 18 10 16 19 18 20 21 23 20 16 18 16 11 10 11 12 13 13 14 14 14 15 16 16 15 14 15
20 25 29 30 31 31 31 33 34 29 24 21 17 19 18 18 19 17 16 21 19 19 19 22 26 23 23 20 17 15 15 16 16 17 19 19 19 18 18 18 18 18 17
14 18 22 24 28 36 33 30 25 24 28 23 21 19 17 18 19 15 14 13 14 19 19 21 19 21 28 26 23 20 19 19 21 22 24 23 23 23 22 22 21 20 21
16 19 22 24 26 25 33 29 27 32 29 30 26 21 18 18 15 15 14 14 16 16 22 22 22 23 23 30 35 30 30 29 27 27 27 26 26 26 26 25 25 23 23
20 22 23 24 23 21 31 37 33 26 21 19 18 16 14 20 22 21 23 21 18 17 18 17 24 27 29 24 31 40 44 41 39 35 33 33 32 32 31 30 29 28 26
21 19 17 14 22 31 37 39 35 27 23 17 11 11 12 19 19 19 16 15 18 15 24 28 31 26 16 28 27 34 39 46 50 46 43 41 38 37 35 37 35 34 32
13 10 10 14 22 31 41 44 37 31 22 16 12 5 5 4 10 13 12 16 19 23 19 16 14 19 26 28 26 28 37 42 45 48 48 44 43 42 41 40 39 39 38
10 10 16 22 31 38 41 38 34 29 23 17 13 6 7 5 2 6 6 8 10 12 10 11 14 17 22 25 32 36 38 36 37 39 44 45 44 39 37 40 39 42 43
19 22 24 30 31 33 31 34 33 29 22 21 17 13 11 7 5 1 2 5 6 7 9 11 12 17 23 30 36 34 29 26 31 29 29 30 29 28 30 33 35 36 39
30 33 34 37 36 32 34 34 34 31 25 23 18 13 8 4 4 2 5 7 9 10 10 12 12 12 21 23 18 14 10 14 10 12 19 18 23 26 30 33 37 40 41
38 41 42 44 47 42 37 33 31 30 26 19 19 18 15 11 7 4 5 7 8 11 13 15 17 15 21 24 24 17 11 11 15 25 12 21 17 18 24 27 30 33 39
41 42 42 39 38 36 32 32 30 33 36 33 29 24 21 16 13 11 11 12 12 13 16 20 22 23 25 28 28 22 12 9 39 7 26 19 38 38 45 43 40 45 40
45 45 44 42 41 42 40 40 40 38 36 33 28 23 18 14 11 10 11 12 13 16 18 21 23 25 25 26 24 23 17 19 14 24 26 39 26 57 54 54 50 52 44
49 49 47 47 46 42 38 33 30 31 31 29 25 20 15 12 10 9 9 11 14 17 20 21 23 25 27 27 29 30 29 25 10 29 42 64 65 65 54 64 66 50 54
52 50 47 44 41 38 35 32 29 28 27 24 19 13 12 9 8 9 11 13 15 18 20 23 26 27 28 29 28 28 30 30 31 32 43 55 65 72 74 72 69 71 55
Wind_Direction_500mb
161 193 181 171 167 161 160 155 146 134 123 116 106 93 94 103 75 56 38 30 27 32 37 40 45 50 59 81 78 85 78 69 62 57 59 53 64 72 71 64 67 69 67
175 195 185 181 179 171 168 164 158 150 138 124 112 105 106 102 68 47 34 27 26 32 34 35 37 42 50 58 52 73 72 65 65 57 57 29 70 78 78 75 64 62 66
164 184 185 182 181 188 177 173 169 161 150 133 109 94 104 106 47 29 22 21 24 26 26 26 26 29 33 39 50 59 67 67 57 65 72 49 30 86 89 85 68 58 55
163 173 179 178 182 197 190 184 180 177 177 181 125 119 113 89 2 2 7 13 8 10 12 15 16 19 20 26 25 39 53 63 56 69 57 9 47 67 58 41 39 16 10
153 164 191 182 184 195 191 194 194 196 204 187 188 150 112 299 318 353 7 357 355 354 348 355 4 6 6 8 7 23 30 48 56 64 56 78 36 67 62 43 28 7 337
146 165 207 190 185 200 201 202 205 210 208 213 199 192 161 22 46 353 348 352 352 347 327 339 355 356 356 359 356 24 20 63 74 62 52 21 308 19 25 19 25 24 355
138 169 210 199 184 201 211 210 213 216 214 216 222 244 182 282 346 339 348 353 358 9 19 17 3 355 356 355 354 113 118 114 99 122 129 134 309 6 360 4 358 357 331
155 177 191 200 202 206 213 215 219 224 227 228 233 227 217 289 351 9 350 348 350 3 9 3 357 359 3 7 14 54 109 115 51 227 132 267 275 350 346 348 347 348 340
163 171 180 206 211 209 211 214 225 231 235 238 250 251 221 236 292 336 340 343 346 348 355 350 353 354 358 3 23 52 97 134 95 349 38 277 329 309 323 332 336 337 329
202 191 190 194 205 202 221 219 223 230 231 228 236 242 237 241 270 303 318 330 327 322 337 351 355 354 354 349 347 360 6 223 288 287 285 309 305 306 312 318 321 323 313
222 223 221 222 210 206 197 215 225 232 237 235 237 239 245 247 254 275 316 315 333 347 325 324 341 348 347 341 327 318 308 311 298 289 282 300 299 301 308 312 312 310 307
234 236 235 234 230 225 215 205 214 232 236 241 241 240 241 237 223 270 305 327 335 344 351 342 336 332 348 346 328 302 298 299 297 299 301 301 299 299 301 305 308 309 308
247 249 247 242 240 236 228 214 209 215 224 230 239 237 227 229 251 270 295 322 322 330 334 344 350 350 353 342 334 319 301 293 291 293 293 295 295 294 295 299 302 303 303
243 250 253 251 247 240 230 216 201 207 217 230 231 227 233 245 256 265 282 295 298 310 313 320 335 340 337 340 336 328 320 307 297 294 292 291 290 289 288 290 294 296 298
255 255 258 257 250 239 220 201 190 200 209 216 229 235 236 234 239 255 272 261 266 278 296 303 314 321 324 334 333 330 330 322 309 298 290 287 286 284 284 284 285 284 284
275 269 262 255 247 212 190 188 191 184 196 213 235 252 263 262 264 259 260 263 265 272 279 283 299 302 308 316 329 330 327 323 321 312 304 296 288 287 284 280 278 277 278
272 272 265 235 208 197 184 182 183 182 189 201 205 224 257 250 261 269 290 277 279 292 290 293 286 293 294 305 313 317 320 327 323 321 316 310 302 293 285 282 281 279 276
231 215 193 175 175 174 173 180 174 173 179 186 175 190 229 246 258 292 300 284 290 298 283 294 292 293 304 310 311 311 311 311 314 315 313 311 306 300 295 286 281 278 275
168 147 136 140 152 160 169 172 170 168 179 169 167 210 172 167 189 277 309 39 349 347 352 329 319 318 314 316 315 312 311 306 302 300 304 305 305 300 293 290 285 282 280
137 130 136 141 148 158 163 164 163 168 165 162 151 152 136 127 107 26 9 343 313 318 321 321 313 312 313 309 311 316 319 314 303 311 315 317 321 320 318 312 305 296 287
144 140 139 140 139 147 152 152 157 158 156 153 147 147 153 157 174 231 294 290 297 290 288 307 318 329 315 329 329 317 2 323 347 352 340 324 323 318 317 314 311 310 307
151 148 147 148 144 147 154 158 166 157 156 158 146 143 138 138 142 118 81 68 46 30 21 13 17 1 350 352 359 7 344 306 309 332 332 336 329 330 326 321 320 313 303
160 157 156 159 162 162 164 163 162 150 140 136 131 125 116 107 95 82 69 56 49 40 30 27 23 19 16 10 14 21 354 330 327 300 320 333 320 322 327 329 330 333 324
162 162 162 162 162 158 152 148 146 146 144 136 132 124 114 106 96 81 59 47 34 26 16 11 10 8 6 7 3 11 5 347 333 318 287 327 308 316 322 321 327 325 323
155 154 152 151 151 152 152 152 151 147 140 135 130 126 124 113 93 76 53 30 16 14 12 10 5 3 2 2 0 354 348 346 308 315 315 314 319 323 327 320 322 322 323
158 158 158 159 159 159 157 153 152 152 147 138 129 124 113 99 76 47 32 20 13 7 2 0 359 355 356 352 350 347 342 339 321 318 310 313 315 320 315 325 324 321 320
Wind_Speed_850mb
13 25 27 24 22 21 20 19 18 16 16 16 14 12 15 13 13 13 16 20 22 22 21 21 19 18 18 16 14 15 15 14 14 15 15 13 17 19 19 19 19 15 15
17 25 28 24 21 20 18 19 19 17 16 13 10 11 12 10 8 11 14 18 21 20 19 19 18 17 16 15 14 14 14 14 17 18 18 23 7 10 14 17 21 25 14
20 27 30 22 19 21 20 19 17 14 11 8 7 7 9 6 6 10 14 16 18 18 16 16 16 15 14 13 10 10 11 12 14 20 29 10 10 4 5 5 7 11 17
19 27 28 27 23 22 19 17 17 15 10 4 4 5 4 2 4 10 12 13 16 16 15 12 12 11 11 10 8 7 7 9 11 20 16 14 14 9 6 5 3 2 4
17 24 25 29 26 23 22 18 16 13 8 6 6 4 2 3 8 8 8 12 16 17 14 10 10 10 10 8 6 5 5 6 11 21 8 10 15 16 12 9 6 5 4
14 25 28 26 25 23 21 19 17 14 11 9 7 3 1 4 5 6 9 14 19 21 13 6 6 8 8 6 4 4 3 7 20 7 15 11 2 11 10 10 9 5 4
12 19 23 26 21 22 20 19 18 18 15 12 9 4 2 4 9 4 11 17 20 20 12 7 8 10 9 7 3 2 5 7 15 5 10 4 5 9 11 11 10 7 3
12 18 16 29 28 24 20 18 16 15 15 14 11 7 7 4 10 12 13 17 19 19 12 9 10 11 9 7 5 3 5 8 9 2 2 5 2 9 13 14 13 11 8
11 14 13 16 28 29 26 21 18 18 16 13 12 11 12 8 8 13 17 20 20 16 12 11 12 12 9 6 4 3 3 5 8 1 7 11 7 8 10 11 11 10 9
14 18 23 26 29 31 22 26 24 22 19 16 15 16 18 18 14 13 18 19 23 18 15 14 14 13 11 7 5 4 2 3 4 4 8 10 12 13 11 11 11 10 10
15 18 19 21 25 33 33 26 29 29 25 21 22 20 17 19 15 12 15 24 24 20 18 15 15 16 14 11 9 8 7 6 7 7 12 11 12 13 15 14 12 12 12
18 21 23 24 25 27 32 34 21 23 27 23 21 18 17 17 18 10 16 19 18 20 21 23 20 16 18 16 11 10 11 12 13 13 14 14 14 15 16 16 15 14 15
20 25 29 30 31 31 31 33 34 29 24 21 17 19 18 18 19 17 16 21 19 19 19 22 26 23 23 20 17 15 15 16 16 17 19 19 19 18 18 18 18 18 17
14 18 22 24 28 36 33 30 25 24 28 23 21 19 17 18 19 15 14 13 14 19 19 21 19 21 28 26 23 20 19 19 21 22 24 23 23 23 22 22 21 20 21
16 19 22 24 26 25 33 29 27 32 29 30 26 21 18 18 15 15 14 14 16 16 22 22 22 23 23 30 35 30 30 29 27 27 27 26 26 26 26 25 25 23 23
20 22 23 24 23 21 31 37 33 26 21 19 18 16 14 20 22 21 23 21 18 17 18 17 24 27 29 24 31 40 44 41 39 35 33 33 32 32 31 30 29 28 26
21 19 17 14 22 31 37 39 35 27 23 17 11 11 12 19 19 19 16 15 18 15 24 28 31 26 16 28 27 34 39 46 50 46 43 41 38 37 35 37 35 34 32
13 10 10 14 22 31 41 44 37 31 22 16 12 5 5 4 10 13 12 16 19 23 19 16 14 19 26 28 26 28 37 42 45 48 48 44 43 42 41 40 39 39 38
10 10 16 22 31 38 41 38 34 29 23 17 13 6 7 5 2 6 6 8 10 12 10 11 14 17 22 25 32 36 38 36 37 39 44 45 44 39 37 40 39 42 43
19 22 24 30 31 33 31 34 33 29 22 21 17 13 11 7 5 1 2 5 6 7 9 11 12 17 23 30 36 34 29 26 31 29 29 30 29 28 30 33 35 36 39
30 33 34 37 36 32 34 34 34 31 25 23 18 13 8 4 4 2 5 7 9 10 10 12 12 12 21 23 18 14 10 14 10 12 19 18 23 26 30 33 37 40 41
38 41 42 44 47 42 37 33 31 30 26 19 19 18 15 11 7 4 5 7 8 11 13 15 17 15 21 24 24 17 11 11 15 25 12 21 17 18 24 27 30 33 39
41 42 42 39 38 36 32 32 30 33 36 33 29 24 21 16 13 11 11 12 12 13 16 20 22 23 25 28 28 22 12 9 39 7 26 19 38 38 45 43 40 45 40
45 45 44 42 41 42 40 40 40 38 36 33 28 23 18 14 11 10 11 12 13 16 18 21 23 25 25 26 24 23 17 19 14 24 26 39 26 57 54 54 50 52 44
49 49 47 47 46 42 38 33 30 31 31 29 25 20 15 12 10 9 9 11 14 17 20 21 23 25 27 27 29 30 29 25 10 29 42 64 65 65 54 64 66 50 54
52 50 47 44 41 38 35 32 29 28 27 24 19 13 12 9 8 9 11 13 15 18 20 23 26 27 28 29 28 28 30 30 31 32 43 55 65 72 74 72 69 71 55
Wind_Direction_850mb
161 193 181 171 167 161 160 155 146 134 123 116 106 93 94 103 75 56 38 30 27 32 37 40 45 50 59 81 78 85 78 69 62 57 59 53 64 72 71 64 67 69 67
175 195 185 181 179 171 168 164 158 150 138 124 112 105 106 102 68 47 34 27 26 32 34 35 37 42 50 58 52 73 72 65 65 57 57 29 70 78 78 75 64 62 66
164 184 185 182 181 188 177 173 169 161 150 133 109 94 104 106 47 29 22 21 24 26 26 26 26 29 33 39 50 59 67 67 57 65 72 49 30 86 89 85 68 58 55
163 173 179 178 182 197 190 184 180 177 177 181 125 119 113 89 2 2 7 13 8 10 12 15 16 19 20 26 25 39 53 63 56 69 57 9 47 67 58 41 39 16 10
153 164 191 182 184 195 191 194 194 196 204 187 188 150 112 299 318 353 7 357 355 354 348 355 4 6 6 8 7 23 30 48 56 64 56 78 36 67 62 43 28 7 337
146 165 207 190 185 200 201 202 205 210 208 213 199 192 161 22 46 353 348 352 352 347 327 339 355 356 356 359 356 24 20 63 74 62 52 21 308 19 25 19 25 24 355
138 169 210 199 184 201 211 210 213 216 214 216 222 244 182 282 346 339 348 353 358 9 19 17 3 355 356 355 354 113 118 114 99 122 129 134 309 6 360 4 358 357 331
155 177 191 200 202 206 213 215 219 224 227 228 233 227 217 289 351 9 350 348 350 3 9 3 357 359 3 7 14 54 109 115 51 227 132 267 275 350 346 348 347 348 340
163 171 180 206 211 209 211 214 225 231 235 238 250 251 221 236 292 336 340 343 346 348 355 350 353 354 358 3 23 52 97 134 95 349 38 277 329 309 323 332 336 337 329
202 191 190 194 205 202 221 219 223 230 231 228 236 242 237 241 270 303 318 330 327 322 337 351 355 354 354 349 347 360 6 223 288 287 285 309 305 306 312 318 321 323 313
222 223 221 222 210 206 197 215 225 232 237 235 237 239 245 247 254 275 316 315 333 347 325 324 341 348 347 341 327 318 308 311 298 289 282 300 299 301 308 312 312 310 307
234 236 235 234 230 225 215 205 214 232 236 241 241 240 241 237 223 270 305 327 335 344 351 342 336 332 348 346 328 302 298 299 297 299 301 301 299 299 301 305 308 309 308
247 249 247 242 240 236 228 214 209 215 224 230 239 237 227 229 251 270 295 322 322 330 334 344 350 350 353 342 334 319 301 293 291 293 293 295 295 294 295 299 302 303 303
243 250 253 251 247 240 230 216 201 207 217 230 231 227 233 245 256 265 282 295 298 310 313 320 335 340 337 340 336 328 320 307 297 294 292 291 290 289 288 290 294 296 298
255 255 258 257 250 239 220 201 190 200 209 216 229 235 236 234 239 255 272 261 266 278 296 303 314 321 324 334 333 330 330 322 309 298 290 287 286 284 284 284 285 284 284
275 269 262 255 247 212 190 188 191 184 196 213 235 252 263 262 264 259 260 263 265 272 279 283 299 302 308 316 329 330 327 323 321 312 304 296 288 287 284 280 278 277 278
272 272 265 235 208 197 184 182 183 182 189 201 205 224 257 250 261 269 290 277 279 292 290 293 286 293 294 305 313 317 320 327 323 321 316 310 302 293 285 282 281 279 276
231 215 193 175 175 174 173 180 174 173 179 186 175 190 229 246 258 292 300 284 290 298 283 294 292 293 304 310 311 311 311 311 314 315 313 311 306 300 295 286 281 278 275
168 147 136 140 152 160 169 172 170 168 179 169 167 210 172 167 189 277 309 39 349 347 352 329 319 318 314 316 315 312 311 306 302 300 304 305 305 300 293 290 285 282 280
137 130 136 141 148 158 163 164 163 168 165 162 151 152 136 127 107 26 9 343 313 318 321 321 313 312 313 309 311 316 319 314 303 311 315 317 321 320 318 312 305 296 287
144 140 139 140 139 147 152 152 157 158 156 153 147 147 153 157 174 231 294 290 297 290 288 307 318 329 315 329 329 317 2 323 347 352 340 324 323 318 317 314 311 310 307
151 148 147 148 144 147 154 158 166 157 156 158 146 143 138 138 142 118 81 68 46 30 21 13 17 1 350 352 359 7 344 306 309 332 332 336 329 330 326 321 320 313 303
160 157 156 159 162 162 164 163 162 150 140 136 131 125 116 107 95 82 69 56 49 40 30 27 23 19 16 10 14 21 354 330 327 300 320 333 320 322 327 329 330 333 324
162 162 162 162 162 158 152 148 146 146 144 136 132 124 114 106 96 81 59 47 34 26 16 11 10 8 6 7 3 11 5 347 333 318 287 327 308 316 322 321 327 325 323
155 154 152 151 151 152 152 152 151 147 140 135 130 126 124 113 93 76 53 30 16 14 12 10 5 3 2 2 0 354 348 346 308 315 315 314 319 323 327 320 322 322 323
158 158 158 159 159 159 157 153 152 152 147 138 129 124 113 99 76 47 32 20 13 7 2 0 359 355 356 352 350 347 342 339 321 318 310 313 315 320 315 325 324 321 320